"startDT [UTC]","vpos","CH4 [ppm]","stdev(CH4) [ppm]","CO2 [ppm]","stdev(CO2) [ppm]","H2O_reported [%]","stdev(H2O_reported)","CavityPressure [torr]","CavityTemp [C]","OutletValve","CH4_dry [ppm]","CO2_dry [ppm]","DasTemp [C]","EtalonTemp [C]","WarmBoxTemp [C]","MPVPosition","T_ECpre [C]","T_EC1 [C]","T_EC2 [C]","p_inlet [hPa]","p_in [hPa]","p_out [hPa]","T_inlet [C]","RH_inlet [%]","dwpt_inlet [C]","T_vent [C]","RH_vent [%]","dwpt_vent [C]","flow_vent [l min-1]","flow_inlet [l min-1]","dwpt_sample [C]","T_room [C]"
2015-07-14 00:00:00,0.0,1.89842,0.00049,383.971,0.281,1.1583,0.0046,140.002,45.000,32617.25366,1.92088,389.518,41.688,45.064,45.000,0.00,0.11,-272.71,-272.78,-10,651,-17,32.9,17.5,5.0,32.6,20.1,6.8,5.73,1.76,9.7,36.4
2015-07-14 00:01:00,0.0,1.89901,0.00061,384.047,0.204,1.1527,0.0068,139.999,45.000,32615.33339,1.92136,389.575,41.682,45.064,45.000,0.00,0.11,-272.70,-272.77,-10,651,-17,32.9,17.4,4.9,32.6,20.0,6.7,5.73,1.53,9.7,36.4
2015-07-14 00:02:00,0.0,1.89878,0.00050,384.282,0.072,1.1535,0.0072,140.002,45.000,32615.49163,1.92116,389.822,41.683,45.064,45.000,0.00,0.11,-272.70,-272.77,-11,651,-17,32.9,17.3,4.9,32.6,20.0,6.7,5.73,1.80,9.7,36.4
2015-07-14 00:03:00,0.0,1.89868,0.00057,383.954,0.079,1.1526,0.0067,139.998,45.000,32616.33899,1.92107,389.479,41.688,45.064,45.000,0.00,0.11,-272.71,-272.78,-9,651,-17,32.9,17.5,5.0,32.6,20.0,6.7,5.73,1.69,9.6,36.4
2015-07-14 00:04:00,0.0,1.89847,0.00039,384.131,0.208,1.1588,0.0057,139.998,45.000,32616.33585,1.92092,389.683,41.685,45.064,45.000,0.00,0.11,-272.70,-272.77,-11,651,-17,32.9,17.4,4.9,32.6,20.0,6.7,5.73,1.56,9.7,36.4
2015-07-14 00:05:00,0.0,1.89895,0.00052,384.377,0.115,1.1384,0.0076,140.002,45.000,32616.64313,1.92105,389.836,41.691,45.064,45.000,0.00,0.11,-272.70,-272.77,-9,651,-17,32.9,17.1,4.7,32.6,20.0,6.7,5.73,1.84,9.6,36.3
2015-07-14 00:06:00,0.0,1.89902,0.00052,384.554,0.060,1.1274,0.0092,139.997,45.000,32617.99553,1.92085,389.967,41.705,45.064,45.000,0.00,0.11,-272.70,-272.77,-10,651,-17,32.9,16.9,4.5,32.6,19.9,6.7,5.73,1.61,9.6,36.3
2015-07-14 00:07:00,0.0,1.89923,0.00043,384.342,0.086,1.1273,0.0036,140.002,45.000,32620.74663,1.92108,389.752,41.719,45.064,44.999,0.00,0.11,-272.70,-272.78,-10,651,-17,32.9,17.0,4.6,32.6,19.9,6.6,5.73,1.63,9.6,36.4
2015-07-14 00:08:00,0.0,1.89931,0.00049,384.072,0.192,1.1389,0.0036,139.998,45.000,32617.56868,1.92136,389.537,41.710,45.064,45.000,0.00,0.11,-272.70,-272.77,-9,651,-17,32.9,17.2,4.8,32.6,19.9,6.6,5.73,1.83,9.6,36.3
2015-07-14 00:09:00,0.0,1.89845,0.00043,384.169,0.118,1.1527,0.0038,140.000,45.000,32617.85243,1.92087,389.685,41.702,45.064,45.000,0.00,0.11,-272.70,-272.77,-11,651,-17,32.9,17.3,4.9,32.6,19.9,6.6,5.73,1.54,9.6,36.4
2015-07-14 00:10:00,0.0,1.89905,0.00032,384.236,0.079,1.1405,0.0048,140.001,45.000,32619.50711,1.92110,389.710,41.688,45.064,45.000,0.00,0.11,-272.71,-272.78,-9,651,-17,32.9,17.2,4.7,32.6,19.9,6.6,5.73,1.72,9.6,36.3
2015-07-14 00:11:00,0.0,1.89911,0.00051,384.097,0.135,1.1479,0.0021,140.001,45.000,32617.54462,1.92141,389.608,41.688,45.064,45.000,0.00,0.11,-272.71,-272.77,-11,651,-17,32.9,17.3,4.9,32.6,19.8,6.6,5.73,1.77,9.6,36.4
2015-07-14 00:12:00,0.0,1.89921,0.00044,384.129,0.104,1.1533,0.0026,140.001,45.000,32616.17833,1.92153,389.660,41.688,45.064,45.000,0.00,0.11,-272.69,-272.77,-9,651,-17,32.9,17.3,4.9,32.6,19.8,6.6,5.73,1.52,9.6,36.3
2015-07-14 00:13:00,0.0,1.89916,0.00042,384.045,0.143,1.1464,0.0033,140.002,45.000,32617.40227,1.92141,389.536,41.688,45.064,45.000,0.00,0.11,-272.71,-272.78,-10,651,-17,32.9,17.3,4.9,32.6,19.8,6.5,5.73,1.81,9.6,36.3
2015-07-14 00:14:00,0.0,1.89903,0.00051,384.000,0.113,1.1549,0.0025,139.999,45.000,32618.30116,1.92144,389.546,41.684,45.064,45.000,0.00,0.11,-272.70,-272.77,-10,651,-17,32.9,17.4,5.0,32.6,19.8,6.5,5.73,1.68,9.6,36.3
2015-07-14 00:15:00,0.0,1.89880,0.00054,383.994,0.155,1.1618,0.0048,139.996,45.000,32615.01084,1.92131,389.555,41.642,45.064,45.000,0.00,0.11,-272.70,-272.77,-9,651,-17,32.9,17.5,5.0,32.6,19.8,6.5,5.73,1.57,9.6,36.3
2015-07-14 00:16:00,0.0,1.89867,0.00068,384.021,0.152,1.1569,0.0043,139.999,45.000,32616.20076,1.92121,389.566,41.625,45.064,45.000,0.00,0.11,-272.71,-272.77,-11,651,-17,32.9,17.4,4.9,32.6,19.7,6.5,5.73,1.84,9.6,36.3
2015-07-14 00:17:00,0.0,1.89841,0.00032,384.247,0.080,1.1445,0.0061,139.998,45.000,32616.56504,1.92059,389.742,41.606,45.064,45.000,0.00,0.11,-272.71,-272.77,-9,651,-17,32.9,17.2,4.7,32.6,19.7,6.5,5.73,1.59,9.6,36.3
2015-07-14 00:18:00,0.0,1.89798,0.00041,383.948,0.161,1.1447,0.0064,140.001,45.000,32618.56074,1.92020,389.427,41.584,45.065,45.000,0.00,0.11,-272.70,-272.77,-11,651,-17,32.9,17.4,4.9,32.6,19.7,6.5,5.73,1.65,9.6,36.3
2015-07-14 00:19:00,0.0,1.89700,0.00065,384.304,0.233,1.1520,0.0092,139.998,45.000,32616.73576,1.91939,389.824,41.596,45.065,45.001,0.00,0.11,-272.70,-272.77,-10,651,-17,32.9,17.3,4.8,32.6,19.7,6.5,5.73,1.82,9.6,36.3
2015-07-14 00:20:00,0.0,1.89665,0.00043,384.675,0.051,1.1199,0.0101,140.004,45.000,32617.04260,1.91835,390.049,41.586,45.065,45.000,0.00,0.11,-272.70,-272.77,-10,651,-17,32.9,16.7,4.3,32.6,19.7,6.5,5.73,1.54,9.6,36.3
2015-07-14 00:21:00,0.0,1.89614,0.00047,384.826,0.049,1.1079,0.0064,139.999,45.000,32617.14174,1.91759,390.142,41.609,45.064,45.000,0.00,0.11,-272.70,-272.77,-10,651,-17,32.9,16.5,4.2,32.6,19.7,6.4,5.73,1.74,9.6,36.2
2015-07-14 00:22:00,0.0,1.89620,0.00040,384.775,0.132,1.0960,0.0031,140.002,45.000,32617.89314,1.91737,390.028,41.625,45.064,45.000,0.00,0.11,-272.70,-272.78,-9,651,-17,32.9,16.5,4.1,32.6,19.7,6.4,5.73,1.75,9.5,36.3
2015-07-14 00:23:00,0.0,1.89604,0.00031,384.714,0.078,1.1048,0.0032,139.999,45.000,32618.35892,1.91739,390.017,41.627,45.064,45.000,0.00,0.11,-272.70,-272.78,-11,651,-17,32.9,16.6,4.2,32.6,19.6,6.4,5.73,1.53,9.5,36.3
2015-07-14 00:24:00,0.0,1.89620,0.00032,384.473,0.178,1.1076,0.0051,140.001,45.000,32619.67074,1.91764,389.783,41.625,45.064,45.000,0.00,0.11,-272.70,-272.77,-9,651,-17,32.9,16.7,4.3,32.6,19.6,6.4,5.73,1.81,9.5,36.3
2015-07-14 00:25:00,0.0,1.89629,0.00040,384.657,0.100,1.1160,0.0061,140.005,45.000,32621.66298,1.91786,390.007,41.624,45.064,45.000,0.00,0.11,-272.70,-272.76,-10,651,-17,32.9,16.7,4.3,32.6,19.6,6.4,5.73,1.67,9.5,36.3
2015-07-14 00:26:00,0.0,1.89645,0.00040,384.432,0.184,1.1037,0.0072,140.002,45.000,32621.03554,1.91780,389.733,41.625,45.064,45.000,0.00,0.11,-272.70,-272.77,-10,651,-17,32.9,16.7,4.3,32.6,19.6,6.4,5.73,1.57,9.5,36.3
2015-07-14 00:27:00,0.0,1.89622,0.00059,384.283,0.165,1.1196,0.0069,140.003,45.000,32620.04711,1.91787,389.646,41.625,45.064,45.000,0.00,0.11,-272.71,-272.78,-10,651,-17,32.9,16.8,4.4,32.6,19.6,6.4,5.73,1.84,9.5,36.3
2015-07-14 00:28:00,0.0,1.89692,0.00060,384.373,0.255,1.1072,0.0044,139.998,45.000,32620.28645,1.91829,389.692,41.625,45.064,45.000,0.00,0.11,-272.70,-272.77,-11,651,-17,32.9,16.7,4.3,32.6,19.6,6.4,5.73,1.59,9.5,36.3
2015-07-14 00:29:00,0.0,1.89725,0.00032,384.294,0.326,1.1191,0.0101,140.000,45.000,32620.95531,1.91891,389.638,41.625,45.064,45.000,0.00,0.11,-272.70,-272.77,-9,651,-17,32.9,16.8,4.4,32.6,19.6,6.4,5.73,1.64,9.5,36.3
2015-07-14 00:30:00,0.0,1.89794,0.00050,384.628,0.081,1.0935,0.0037,140.002,45.000,32621.73968,1.91905,389.877,41.634,45.064,45.000,0.00,0.11,-272.71,-272.77,-11,651,-17,32.9,16.4,4.1,32.6,19.6,6.4,5.73,1.83,9.5,36.2
2015-07-14 00:31:00,0.0,1.89827,0.00036,384.275,0.190,1.1046,0.0050,140.002,45.000,32619.30349,1.91966,389.569,41.625,45.064,45.000,0.00,0.11,-272.70,-272.77,-9,651,-17,32.8,16.7,4.3,32.6,19.6,6.3,5.73,1.54,9.5,36.2
2015-07-14 00:32:00,0.0,1.89763,0.00055,384.505,0.132,1.1148,0.0118,140.002,45.000,32620.37658,1.91918,389.843,41.623,45.064,45.000,0.00,0.11,-272.70,-272.77,-10,651,-17,32.9,16.7,4.3,32.6,19.6,6.4,5.73,1.73,9.5,36.2
2015-07-14 00:33:00,0.0,1.89783,0.00044,384.719,0.099,1.0951,0.0041,140.002,45.000,32620.54881,1.91906,389.960,41.587,45.064,45.000,0.00,0.11,-272.70,-272.77,-10,651,-17,32.9,16.4,4.1,32.5,19.5,6.3,5.73,1.76,9.5,36.3
2015-07-14 00:34:00,0.0,1.89839,0.00049,384.737,0.089,1.0911,0.0052,140.001,45.000,32616.66715,1.91951,389.971,41.563,45.064,45.000,0.00,0.11,-272.70,-272.78,-9,652,-17,32.8,16.4,4.1,32.5,19.5,6.3,5.73,1.52,9.5,36.2
2015-07-14 00:35:00,0.0,1.89874,0.00063,384.160,0.281,1.1087,0.0117,140.003,45.000,32618.02067,1.92019,389.472,41.563,45.064,45.000,0.00,0.11,-272.70,-272.77,-11,651,-17,32.9,16.9,4.5,32.5,19.5,6.3,5.73,1.80,9.5,36.2
2015-07-14 00:36:00,0.0,1.89776,0.00042,383.934,0.212,1.1349,0.0065,139.999,45.000,32615.87997,1.91975,389.388,41.563,45.065,45.000,0.00,0.11,-272.70,-272.77,-9,651,-17,32.9,17.2,4.7,32.5,19.5,6.3,5.73,1.68,9.5,36.3
2015-07-14 00:37:00,0.0,1.89757,0.00051,384.165,0.206,1.1382,0.0079,140.001,45.000,32617.64889,1.91960,389.603,41.559,45.065,45.000,0.00,0.11,-272.70,-272.78,-11,651,-17,32.8,17.1,4.6,32.5,19.4,6.2,5.73,1.56,9.4,36.3
2015-07-14 00:38:00,0.0,1.89810,0.00036,384.012,0.203,1.1228,0.0059,140.003,45.000,32619.79936,1.91984,389.401,41.563,45.064,45.000,0.00,0.11,-272.70,-272.77,-9,651,-17,32.8,17.0,4.6,32.5,19.4,6.2,5.73,1.84,9.4,36.3
2015-07-14 00:39:00,0.0,1.89775,0.00055,383.881,0.355,1.1426,0.0047,139.999,45.000,32617.93234,1.91995,389.346,41.561,45.064,45.000,0.00,0.11,-272.70,-272.77,-10,652,-17,32.9,17.3,4.8,32.5,19.4,6.2,5.73,1.60,9.4,36.3
2015-07-14 00:40:00,0.0,1.89799,0.00060,383.977,0.123,1.1245,0.0082,140.002,45.000,32618.59171,1.91975,389.374,41.563,45.064,45.000,0.00,0.11,-272.70,-272.78,-10,651,-17,32.8,17.0,4.5,32.5,19.4,6.2,5.73,1.64,9.4,36.2
2015-07-14 00:41:00,0.0,1.89819,0.00062,384.145,0.117,1.1264,0.0059,140.001,45.000,32616.77055,1.91994,389.540,41.557,45.064,45.000,0.00,0.11,-272.71,-272.77,-9,651,-17,32.8,16.9,4.5,32.5,19.3,6.1,5.73,1.82,9.4,36.2
2015-07-14 00:42:00,0.0,1.89869,0.00058,383.975,0.104,1.1292,0.0077,139.999,45.000,32612.51589,1.92057,389.386,41.561,45.064,45.000,0.00,0.11,-272.70,-272.77,-11,651,-17,32.8,17.1,4.7,32.5,19.3,6.1,5.73,1.53,9.4,36.2
2015-07-14 00:43:00,0.0,1.89879,0.00036,384.109,0.062,1.1354,0.0040,139.998,45.000,32610.08282,1.92083,389.544,41.563,45.064,45.000,0.00,0.11,-272.71,-272.78,-9,651,-17,32.8,17.2,4.7,32.5,19.3,6.1,5.73,1.73,9.4,36.3
2015-07-14 00:44:00,0.0,1.89858,0.00058,384.109,0.222,1.1349,0.0051,139.999,45.000,32611.23477,1.92061,389.543,41.559,45.064,45.000,0.00,0.11,-272.71,-272.77,-11,651,-17,32.8,17.1,4.6,32.5,19.3,6.1,5.73,1.77,9.4,36.2
2015-07-14 00:45:00,0.0,1.89886,0.00025,384.293,0.124,1.1137,0.0035,139.998,45.000,32609.80714,1.92039,389.635,41.530,45.064,45.000,0.00,0.11,-272.69,-272.77,-10,651,-17,32.8,16.8,4.4,32.5,19.3,6.1,5.73,1.53,9.4,36.2
2015-07-14 00:46:00,0.0,1.89937,0.00052,384.160,0.106,1.1213,0.0022,140.002,45.000,32611.96115,1.92108,389.530,41.500,45.064,45.000,0.00,0.11,-272.70,-272.77,-10,651,-17,32.8,16.9,4.5,32.5,19.3,6.1,5.73,1.80,9.4,36.3
2015-07-14 00:47:00,0.0,1.89911,0.00035,384.144,0.069,1.1273,0.0027,140.002,45.000,32613.32591,1.92098,389.549,41.500,45.064,45.000,0.00,0.11,-272.71,-272.77,-10,651,-17,32.8,17.0,4.6,32.5,19.3,6.1,5.73,1.68,9.4,36.2
2015-07-14 00:48:00,0.0,1.89904,0.00044,384.051,0.122,1.1310,0.0027,140.002,45.000,32613.05239,1.92097,389.466,41.500,45.065,45.000,0.00,0.11,-272.70,-272.77,-9,651,-17,32.8,17.1,4.6,32.5,19.3,6.1,5.73,1.56,9.4,36.2
2015-07-14 00:49:00,0.0,1.89939,0.00035,383.970,0.077,1.1341,0.0035,140.000,45.000,32610.23348,1.92135,389.408,41.500,45.065,45.000,0.00,0.11,-272.70,-272.77,-11,651,-17,32.8,17.2,4.7,32.5,19.3,6.1,5.73,1.84,9.4,36.2
2015-07-14 00:50:00,0.0,1.89932,0.00061,383.975,0.109,1.1459,0.0038,139.998,45.000,32611.08632,1.92153,389.466,41.501,45.065,45.000,0.00,0.11,-272.70,-272.78,-9,651,-17,32.8,17.4,4.8,32.5,19.3,6.1,5.73,1.60,9.4,36.2
2015-07-14 00:51:00,0.0,1.89961,0.00055,383.649,0.161,1.1468,0.0070,139.999,45.000,32613.47837,1.92186,389.143,41.500,45.064,45.000,0.00,0.11,-272.69,-272.77,-10,652,-17,32.8,17.5,5.0,32.5,19.3,6.1,5.73,1.63,9.4,36.2
2015-07-14 00:52:00,0.0,1.89964,0.00043,383.541,0.234,1.1626,0.0062,139.997,45.000,32610.37369,1.92219,389.126,41.500,45.064,45.000,0.00,0.11,-272.70,-272.77,-10,651,-17,32.8,17.6,5.1,32.5,19.3,6.1,5.73,1.83,9.3,36.1
2015-07-14 00:53:00,0.0,1.89904,0.00062,383.611,0.210,1.1669,0.0091,140.006,45.000,32613.41044,1.92171,389.186,41.497,45.064,45.000,0.00,0.11,-272.70,-272.77,-10,652,-17,32.8,17.7,5.1,32.5,19.2,6.0,5.73,1.54,9.3,36.2
2015-07-14 00:54:00,0.0,1.89933,0.00048,383.672,0.225,1.1546,0.0045,140.001,45.000,32612.44818,1.92170,389.210,41.494,45.064,45.000,0.00,0.11,-272.71,-272.78,-10,651,-17,32.8,17.6,5.0,32.5,19.2,6.1,5.73,1.72,9.3,36.2
2015-07-14 00:55:00,0.0,1.89892,0.00059,383.515,0.113,1.1635,0.0029,140.000,45.000,32609.82997,1.92154,389.094,41.476,45.064,45.000,0.00,0.11,-272.70,-272.77,-9,651,-17,32.8,17.7,5.1,32.5,19.2,6.1,5.73,1.78,9.3,36.2
2015-07-14 00:56:00,0.0,1.89917,0.00021,383.623,0.119,1.1634,0.0049,139.999,45.000,32605.45084,1.92174,389.192,41.447,45.064,45.000,0.00,0.11,-272.70,-272.77,-11,651,-17,32.8,17.6,5.0,32.5,19.2,6.0,5.73,1.52,9.3,36.2
2015-07-14 00:57:00,0.0,1.89774,0.00075,384.101,0.230,1.1466,0.0100,140.002,45.000,32608.82624,1.92003,389.588,41.442,45.064,45.000,0.00,0.11,-272.71,-272.78,-9,651,-17,32.8,17.2,4.6,32.5,19.2,6.0,5.73,1.80,9.3,36.2
2015-07-14 00:58:00,0.0,1.89909,0.00057,383.775,0.346,1.1218,0.0118,140.001,45.000,32606.59647,1.92078,389.166,41.438,45.064,45.000,0.00,0.11,-272.71,-272.77,-10,652,-17,32.8,17.1,4.6,32.5,19.2,6.0,5.73,1.69,9.3,36.2
2015-07-14 00:59:00,0.0,1.89783,0.00075,383.870,0.258,1.1491,0.0084,140.002,45.000,32607.60897,1.92013,389.367,41.438,45.065,45.000,0.00,0.11,-272.70,-272.77,-10,651,-17,32.8,17.3,4.7,32.5,19.3,6.1,5.73,1.56,9.3,36.1
2015-07-14 01:00:00,0.0,1.89800,0.00047,384.103,0.145,1.1274,0.0046,140.002,45.000,32609.49047,1.91985,389.501,41.437,45.065,45.000,0.00,0.11,-272.71,-272.78,-9,652,-17,32.8,17.1,4.5,32.5,19.3,6.0,5.73,1.84,9.3,36.2
2015-07-14 01:01:00,0.0,1.89808,0.00036,383.710,0.279,1.1306,0.0110,139.998,45.000,32608.45222,1.91999,389.125,41.442,45.064,45.000,0.00,0.11,-272.70,-272.77,-11,651,-17,32.7,17.3,4.7,32.5,19.3,6.0,5.73,1.61,9.3,36.2
2015-07-14 01:02:00,0.0,1.89763,0.00059,383.702,0.104,1.1493,0.0073,140.001,45.000,32607.94347,1.91995,389.207,41.468,45.064,45.000,0.00,0.11,-272.69,-272.77,-9,651,-17,32.7,17.4,4.8,32.5,19.3,6.1,5.73,1.62,9.3,36.1
2015-07-14 01:03:00,0.0,1.89685,0.00046,384.046,0.102,1.1413,0.0134,139.997,45.000,32608.87892,1.91896,389.519,41.458,45.064,45.000,0.00,0.11,-272.70,-272.77,-11,652,-17,32.7,17.2,4.6,32.5,19.3,6.1,5.73,1.83,9.3,36.1
2015-07-14 01:04:00,0.0,1.89728,0.00057,383.795,0.237,1.1339,0.0078,140.001,45.000,32609.45381,1.91924,389.226,41.442,45.064,45.000,0.00,0.11,-272.70,-272.78,-9,651,-17,32.7,17.4,4.8,32.5,19.3,6.1,5.73,1.55,9.3,36.1
2015-07-14 01:05:00,0.0,1.89661,0.00061,383.793,0.188,1.1536,0.0076,139.997,45.000,32609.32106,1.91893,389.315,41.439,45.064,45.000,0.00,0.11,-272.70,-272.77,-10,652,-17,32.7,17.5,4.9,32.5,19.3,6.1,5.73,1.71,9.3,36.1
2015-07-14 01:06:00,0.0,1.89663,0.00068,383.813,0.116,1.1585,0.0069,139.998,45.000,32606.95629,1.91912,389.368,41.437,45.064,45.000,0.00,0.11,-272.71,-272.77,-10,652,-17,32.7,17.6,4.9,32.5,19.3,6.1,5.73,1.78,9.3,36.1
2015-07-14 01:07:00,0.0,1.89701,0.00056,383.864,0.128,1.1467,0.0039,140.000,45.000,32607.16931,1.91918,389.364,41.421,45.064,45.000,0.00,0.11,-272.71,-272.78,-9,652,-17,32.7,17.4,4.8,32.5,19.3,6.1,5.73,1.52,9.2,36.1
2015-07-14 01:08:00,0.0,1.89716,0.00054,383.822,0.100,1.1463,0.0050,140.004,45.000,32609.52773,1.91941,389.312,41.377,45.064,45.000,0.00,0.11,-272.70,-272.77,-11,652,-17,32.7,17.4,4.8,32.5,19.3,6.1,5.73,1.80,9.2,36.1
2015-07-14 01:09:00,0.0,1.89658,0.00071,383.786,0.217,1.1445,0.0046,139.998,45.000,32607.44457,1.91879,389.255,41.384,45.064,45.000,0.00,0.11,-272.71,-272.77,-9,652,-17,32.7,17.4,4.8,32.4,19.3,6.1,5.73,1.69,9.3,36.1
2015-07-14 01:10:00,0.0,1.89624,0.00058,384.209,0.132,1.1217,0.0087,139.998,45.000,32607.73009,1.91793,389.593,41.399,45.065,45.000,0.00,0.11,-272.70,-272.78,-10,652,-17,32.7,16.9,4.4,32.5,19.3,6.1,5.73,1.56,9.2,36.1
2015-07-14 01:11:00,0.0,1.89652,0.00041,384.147,0.121,1.1202,0.0049,140.002,45.000,32606.59559,1.91819,389.510,41.415,45.064,45.000,0.00,0.11,-272.71,-272.77,-9,652,-17,32.7,17.0,4.5,32.4,19.3,6.1,5.73,1.84,9.2,36.1
2015-07-14 01:12:00,0.0,1.89645,0.00039,384.274,0.117,1.1202,0.0035,139.999,45.000,32602.41807,1.91816,389.636,41.438,45.064,45.000,0.00,0.11,-272.70,-272.77,-10,652,-17,32.7,17.0,4.4,32.4,19.4,6.1,5.73,1.61,9.2,36.1
2015-07-14 01:13:00,0.0,1.89678,0.00042,384.260,0.146,1.1154,0.0061,140.002,45.000,32603.94262,1.91833,389.609,41.439,45.064,45.000,0.00,0.11,-272.70,-272.77,-10,652,-17,32.7,16.9,4.4,32.4,19.3,6.1,5.73,1.62,9.2,36.0
2015-07-14 01:14:00,0.0,1.89639,0.00054,384.533,0.135,1.1053,0.0084,140.003,45.000,32609.07334,1.91777,389.835,41.439,45.064,44.999,0.00,0.11,-272.71,-272.77,-9,652,-17,32.7,16.7,4.2,32.4,19.3,6.1,5.73,1.83,9.2,36.1
2015-07-14 01:15:00,0.0,1.89673,0.00060,384.547,0.075,1.1048,0.0051,139.997,45.000,32606.52182,1.91808,389.833,41.447,45.064,45.000,0.00,0.11,-272.70,-272.77,-11,652,-17,32.7,16.7,4.2,32.4,19.4,6.1,5.73,1.55,9.2,36.0
2015-07-14 01:16:00,0.0,1.89709,0.00040,384.260,0.113,1.1130,0.0079,139.999,45.000,32604.61847,1.91862,389.594,41.464,45.064,45.000,0.00,0.11,-272.70,-272.77,-9,652,-17,32.7,17.0,4.5,32.4,19.4,6.1,5.73,1.71,9.2,36.0
2015-07-14 01:17:00,0.0,1.89702,0.00030,384.238,0.126,1.1208,0.0031,140.002,45.000,32604.91101,1.91872,389.617,41.443,45.064,45.000,0.00,0.11,-272.70,-272.78,-10,652,-17,32.7,17.1,4.5,32.4,19.4,6.1,5.73,1.79,9.2,36.1
2015-07-14 01:18:00,0.0,1.89678,0.00050,384.279,0.085,1.1237,0.0034,140.003,45.000,32606.59985,1.91857,389.659,41.438,45.064,45.000,0.00,0.11,-272.70,-272.77,-10,651,-17,32.7,17.1,4.5,32.4,19.4,6.1,5.73,1.52,9.2,36.1
2015-07-14 01:19:00,0.0,1.89672,0.00053,384.439,0.081,1.1195,0.0050,140.001,45.000,32607.22189,1.91835,389.806,41.438,45.064,45.000,0.00,0.11,-272.70,-272.77,-9,652,-17,32.7,17.0,4.4,32.4,19.4,6.1,5.73,1.78,9.2,36.0
2015-07-14 01:20:00,0.0,1.89697,0.00052,384.259,0.052,1.1184,0.0063,140.002,45.000,32608.68061,1.91860,389.623,41.434,45.064,45.000,0.00,0.11,-272.71,-272.77,-10,652,-17,32.7,17.1,4.5,32.4,19.3,6.0,5.73,1.72,9.2,36.1
2015-07-14 01:21:00,0.0,1.89703,0.00049,384.076,0.192,1.1305,0.0071,140.001,45.000,32606.24595,1.91892,389.488,41.433,45.064,45.000,0.00,0.11,-272.71,-272.78,-9,652,-17,32.7,17.3,4.7,32.4,19.3,6.1,5.73,1.54,9.2,36.0
2015-07-14 01:22:00,0.0,1.89693,0.00037,384.297,0.101,1.1382,0.0071,139.999,45.000,32602.12226,1.91896,389.754,41.400,45.064,45.000,0.00,0.11,-272.70,-272.77,-11,652,-17,32.7,17.3,4.7,32.4,19.4,6.1,5.73,1.83,9.2,36.1
2015-07-14 01:23:00,0.0,1.89711,0.00047,384.581,0.123,1.1236,0.0076,139.997,45.000,32602.74754,1.91891,389.968,41.397,45.065,45.000,0.00,0.11,-272.70,-272.77,-9,651,-17,32.7,17.0,4.4,32.4,19.3,6.0,5.73,1.64,9.2,36.0
2015-07-14 01:24:00,0.0,1.89699,0.00038,384.626,0.057,1.1132,0.0028,139.999,45.000,32604.24096,1.91851,389.964,41.430,45.065,45.000,0.00,0.11,-272.70,-272.77,-10,652,-17,32.7,16.9,4.4,32.4,19.3,6.0,5.73,1.59,9.2,36.0
2015-07-14 01:25:00,0.0,1.89723,0.00049,384.691,0.040,1.1131,0.0018,140.001,45.000,32604.68604,1.91880,390.032,41.397,45.065,45.000,0.00,0.11,-272.71,-272.77,-10,652,-17,32.7,16.9,4.3,32.4,19.3,6.0,5.73,1.84,9.2,36.1
2015-07-14 01:26:00,0.0,1.89746,0.00054,384.525,0.116,1.1118,0.0035,139.998,45.000,32604.37459,1.91891,389.859,41.375,45.065,45.000,0.00,0.11,-272.70,-272.77,-9,652,-17,32.7,17.0,4.4,32.4,19.3,6.0,5.73,1.57,9.1,36.0
2015-07-14 01:27:00,0.0,1.89739,0.00051,384.425,0.050,1.1255,0.0041,140.003,45.000,32604.59865,1.91925,389.823,41.374,45.065,45.000,0.00,0.11,-272.70,-272.78,-10,652,-17,32.7,17.2,4.6,32.4,19.3,6.0,5.73,1.66,9.1,36.0
2015-07-14 01:28:00,0.0,1.89687,0.00068,384.516,0.058,1.1255,0.0026,140.003,45.000,32605.62955,1.91862,389.909,41.367,45.065,45.000,0.00,0.11,-272.71,-272.77,-9,652,-17,32.7,17.1,4.5,32.4,19.3,6.0,5.73,1.82,9.1,36.1
2015-07-14 01:29:00,0.0,1.89726,0.00034,384.248,0.080,1.1273,0.0073,140.001,45.000,32602.86771,1.91907,389.652,41.371,45.065,45.000,0.00,0.11,-272.70,-272.77,-10,652,-17,32.7,17.3,4.6,32.4,19.3,6.0,5.73,1.54,9.1,36.1
2015-07-14 01:30:00,0.0,1.89721,0.00051,384.067,0.159,1.1375,0.0044,140.001,45.000,32603.26715,1.91929,389.519,41.375,45.064,45.000,0.00,0.11,-272.70,-272.78,-9,651,-17,32.7,17.4,4.7,32.4,19.2,6.0,5.73,1.74,9.1,36.0
2015-07-14 01:31:00,0.0,1.89743,0.00055,384.235,0.064,1.1380,0.0063,140.002,45.000,32603.16426,1.91946,389.695,41.381,45.064,45.000,0.00,0.11,-272.71,-272.77,-9,652,-17,32.7,17.3,4.6,32.4,19.2,6.0,5.73,1.76,9.1,36.0
2015-07-14 01:32:00,0.0,1.89683,0.00060,384.244,0.159,1.1350,0.0020,140.005,45.000,32605.21413,1.91884,389.675,41.400,45.064,45.000,0.00,0.11,-272.70,-272.77,-10,652,-17,32.6,17.3,4.7,32.4,19.2,6.0,5.73,1.53,9.1,36.0
2015-07-14 01:33:00,0.0,1.89629,0.00037,384.540,0.088,1.1183,0.0080,140.001,45.000,32605.10317,1.91792,389.909,41.425,45.064,45.000,0.00,0.11,-272.70,-272.78,-9,652,-17,32.7,17.0,4.4,32.4,19.2,6.0,5.73,1.80,9.1,36.0
2015-07-14 01:34:00,0.0,1.89659,0.00068,384.432,0.072,1.1243,0.0026,139.998,45.000,32599.09749,1.91829,389.824,41.426,45.064,45.000,0.00,0.11,-272.71,-272.78,-11,652,-17,32.6,17.1,4.5,32.4,19.2,6.0,5.73,1.69,9.1,36.1
2015-07-14 01:35:00,0.0,1.89711,0.00044,384.464,0.096,1.1203,0.0025,139.999,45.000,32601.20700,1.91880,389.840,41.420,45.064,44.999,0.00,0.11,-272.70,-272.77,-9,652,-17,32.7,17.1,4.5,32.4,19.2,6.0,5.73,1.55,9.1,36.1
2015-07-14 01:36:00,0.0,1.89678,0.00044,384.053,0.144,1.1341,0.0088,140.000,45.000,32601.27014,1.91877,389.479,41.433,45.064,45.000,0.00,0.11,-272.71,-272.77,-10,652,-17,32.7,17.5,4.8,32.4,19.2,5.9,5.73,1.84,9.1,36.1
2015-07-14 01:37:00,0.0,1.89610,0.00054,384.561,0.103,1.1308,0.0159,139.997,45.000,32601.20589,1.91803,389.995,41.438,45.064,45.000,0.00,0.11,-272.71,-272.77,-10,652,-17,32.6,17.1,4.5,32.3,19.2,5.9,5.73,1.62,9.1,36.0
2015-07-14 01:38:00,0.0,1.89664,0.00047,384.325,0.103,1.1282,0.0091,140.000,45.000,32603.61329,1.91846,389.730,41.438,45.064,45.000,0.00,0.11,-272.70,-272.78,-9,652,-17,32.7,17.3,4.7,32.4,19.2,5.9,5.73,1.60,9.1,36.1
2015-07-14 01:39:00,0.0,1.89661,0.00032,384.170,0.058,1.1367,0.0029,140.001,45.000,32602.33514,1.91859,389.625,41.436,45.064,45.000,0.00,0.11,-272.70,-272.77,-11,652,-17,32.6,17.4,4.7,32.4,19.2,5.9,5.73,1.84,9.1,36.1
2015-07-14 01:40:00,0.0,1.89618,0.00041,384.453,0.169,1.1348,0.0100,140.001,45.000,32605.23201,1.91819,389.888,41.438,45.064,45.000,0.00,0.11,-272.70,-272.77,-9,652,-17,32.6,17.2,4.6,32.3,19.2,5.9,5.73,1.56,9.1,36.1
2015-07-14 01:41:00,0.0,1.89667,0.00051,384.356,0.198,1.1186,0.0027,140.001,45.000,32605.53181,1.91827,389.732,41.437,45.064,45.000,0.00,0.11,-272.71,-272.78,-10,652,-17,32.6,17.2,4.5,32.3,19.2,5.9,5.73,1.68,9.1,36.0
2015-07-14 01:42:00,0.0,1.89656,0.00053,384.134,0.110,1.1389,0.0060,139.998,45.000,32605.96747,1.91864,389.596,41.424,45.064,45.000,0.00,0.11,-272.71,-272.77,-9,652,-17,32.6,17.5,4.8,32.3,19.2,5.9,5.73,1.81,9.1,36.0
2015-07-14 01:43:00,0.0,1.89616,0.00059,383.846,0.089,1.1496,0.0065,139.998,45.000,32604.98904,1.91841,389.354,41.381,45.064,45.000,0.00,0.11,-272.70,-272.77,-9,652,-17,32.6,17.7,5.0,32.3,19.2,5.9,5.73,1.53,9.1,36.0
2015-07-14 01:44:00,0.0,1.89657,0.00040,383.688,0.138,1.1594,0.0051,140.001,45.000,32602.34844,1.91898,389.242,41.375,45.064,45.000,0.00,0.11,-272.71,-272.78,-10,652,-17,32.6,17.8,5.1,32.3,19.2,5.9,5.73,1.76,9.0,36.0
2015-07-14 01:45:00,0.0,1.89698,0.00062,384.209,0.187,1.1513,0.0086,139.998,45.000,32601.36800,1.91928,389.719,41.375,45.065,45.000,0.00,0.11,-272.70,-272.77,-9,652,-17,32.6,17.6,4.8,32.3,19.2,5.9,5.73,1.75,9.1,36.0
2015-07-14 01:46:00,0.0,1.89760,0.00045,384.234,0.141,1.1357,0.0038,139.997,45.000,32600.00627,1.91959,389.690,41.376,45.065,45.000,0.00,0.11,-272.70,-272.77,-10,652,-17,32.6,17.4,4.7,32.3,19.2,5.9,5.73,1.53,9.0,36.0
2015-07-14 01:47:00,0.0,1.89695,0.00043,383.863,0.170,1.1547,0.0046,140.001,45.000,32601.98899,1.91940,389.399,41.378,45.065,45.000,0.00,0.11,-272.71,-272.78,-9,652,-17,32.6,17.8,5.0,32.3,19.2,5.9,5.73,1.80,9.0,36.0